Back to catalog

COSMOS 2251 DEB

AliveLEO
NORAD 35459·DEBRIS·🇷🇺 Russia

Launched Jun 16, 1993 from Plesetsk Cosmodrome

Loading…

Next Passes (next 24 hours)

TLE

AgingSource: Space-Track

Epoch: Sep 8, 2026, 03:32 UTC

1 35459U 93036ALD 26251.14763630  .00000416  00000-0  14677-3 0  9992
2 35459  73.8717  46.3676 0017402 297.0146  62.9230 14.37843026622332

Track COSMOS 2251 DEB in real time with AllMySat

Download on the App Store